This demonstration page uses our WeatherBlox Daily Observations layout. Learn more.

Hourly Observations for June 2, 2016

Temp ( °F °C ) Dew Point ( °F °C ) Humidity (%) Winds ( mph kmh ) Pressure ( in mb ) Visibility ( mi km ) Precip ( " mm )
12:35 am 00:35 Clear 62 16.4 52 11.1 71 71 S 5 7 30.06 1018 10 16.0934 0 0
12:55 am 00:55 Clear 62 16.5 52 11.1 71 71 SSW 8 13 30.06 1018 10 16.0934 0 0
1:15 am 01:15 Clear 62 16.4 52 11 71 71 SSW 6 9 30.06 1018 10 16.0934 0 0
1:35 am 01:35 Clear 61 16.3 52 11 71 71 SSW 8 13 30.06 1018 10 16.0934 0 0
1:55 am 01:55 Clear 61 16.1 52 11 72 72 SW 6 9 30.06 1018 10 16.0934 0 0
2:15 am 02:15 Clear 60 15.4 52 11 75 75 SSW 3 6 30.06 1018 10 16.0934 0 0
2:35 am 02:35 Clear 59 15.1 52 11 77 77 SSW 3 6 30.06 1018 10 16.0934 0 0
2:55 am 02:55 Clear 60 15.3 51 10.7 74 74 SSW 6 9 30.06 1018 10 16.0934 0 0
3:15 am 03:15 Clear 58 14.6 51 10.5 77 77 SW 3 6 30.06 1018 10 16.0934 0 0
3:35 am 03:35 Clear 58 14.5 51 10.6 78 78 SW 7 11 30.06 1018 10 16.0934 0 0
3:55 am 03:55 Clear 59 14.8 51 10.8 77 77 SW 7 11 30.06 1018 10 16.0934 0 0
4:15 am 04:15 Clear 58 14.5 51 10.7 78 78 SW 6 9 30.06 1018 10 16.0934 0 0
4:35 am 04:35 Clear 58 14.7 51 10.8 78 78 SW 6 9 30.06 1018 10 16.0934 0 0
4:55 am 04:55 Clear 58 14.5 51 10.7 78 78 WSW 6 9 30.06 1018 10 16.0934 0 0
5:15 am 05:15 Clear 58 14.6 51 10.7 78 78 WSW 6 9 30.06 1018 10 16.0934 0 0
5:35 am 05:35 Clear 58 14.7 51 10.7 77 77 WSW 6 9 30.06 1018 10 16.0934 0 0
5:55 am 05:55 Clear 58 14.7 51 10.7 77 77 SW 6 9 30.06 1018 10 16.0934 0 0
6:15 am 06:15 Sunny 57 13.7 51 10.8 83 83 SW 5 7 30.06 1018 10 16.0934 0 0
6:35 am 06:35 Sunny 56 13.5 52 10.9 84 84 SW 3 6 30.06 1018 10 16.0934 0 0
6:55 am 06:55 Sunny 57 13.8 52 11.2 84 84 SW 5 7 30.06 1018 10 16.0934 0 0
7:15 am 07:15 Sunny 58 14.6 53 11.5 82 82 SW 5 7 30.09 1019 10 16.0934 0 0
7:35 am 07:35 Sunny 61 15.9 53 11.6 76 76 SSW 3 6 30.09 1019 10 16.0934 0 0
7:55 am 07:55 Sunny 63 17.2 54 12.1 72 72 SW 6 9 30.06 1018 10 16.0934 0 0
8:15 am 08:15 Sunny 65 18.4 54 12.3 68 68 SW 7 11 30.06 1018 10 16.0934 0 0
8:35 am 08:35 Sunny 66 18.9 54 12 64 64 SW 10 17 30.06 1018 10 16.0934 0 0
8:55 am 08:55 Sunny 67 19.7 54 12.1 62 62 SSW 9 15 30.06 1018 10 16.0934 0 0
9:15 am 09:15 Sunny 69 20.6 54 12.4 60 60 SW 10 17 30.06 1018 10 16.0934 0 0
9:35 am 09:35 Sunny 70 21 53 11.9 56 56 SW 10 17 30.03 1017 10 16.0934 0 0
9:55 am 09:55 Sunny 71 21.5 55 12.5 57 57 SW 10 17 30.03 1017 10 16.0934 0 0
10:15 am 10:15 Sunny 72 22.1 53 11.9 53 53 SSW 10 17 30 1016 10 16.0934 0 0
10:35 am 10:35 Sunny 73 22.8 53 11.8 50 50 SSW 15 24 30 1016 10 16.0934 0 0
10:55 am 10:55 Sunny 73 23 54 12 50 50 SW 10 17 30 1016 10 16.0934 0 0
11:15 am 11:15 Sunny 74 23.4 52 11.3 47 47 SSW 14 22 30 1016 10 16.0934 0 0
11:35 am 11:35 Sunny 75 23.9 51 10.8 44 44 SSW 12 19 30 1016 10 16.0934 0 0
11:55 am 11:55 Sunny 76 24.4 50 10.2 41 41 SSW 9 15 29.97 1015 10 16.0934 0 0
12:15 pm 12:15 Sunny 77 25 49 9.5 38 38 SSW 12 19 29.97 1015 10 16.0934 0 0
12:35 pm 12:35 Sunny 77 24.9 47 8.6 36 36 SSW 12 19 29.97 1015 10 16.0934 0 0
12:55 pm 12:55 Sunny 78 25.3 45 7.1 31 31 S 15 24 29.97 1015 10 16.0934 0 0
1:15 pm 13:15 Sunny 78 25.7 43 6.1 29 29 SSW 20 31 29.97 1015 10 16.0934 0 0
1:35 pm 13:35 Sunny 78 25.8 44 6.8 30 30 S 18 30 29.97 1015 10 16.0934 0 0
1:55 pm 13:55 Sunny 79 26 44 6.8 29 29 SSW 15 24 29.97 1015 10 16.0934 0 0
2:15 pm 14:15 Sunny 79 26.1 46 7.5 31 31 S 14 22 29.94 1014 10 16.0934 0 0
2:35 pm 14:35 Sunny 79 26.1 45 7.3 30 30 S 18 30 29.94 1014 10 16.0934 0 0
2:55 pm 14:55 Sunny 79 26.2 45 7.3 30 30 S 10 17 29.94 1014 10 16.0934 0 0
3:15 pm 15:15 Sunny 79 26.2 43 6.2 28 28 SSW 16 26 29.94 1014 10 16.0934 0 0
3:35 pm 15:35 Sunny 80 26.7 47 8.2 31 31 S 14 22 29.94 1014 10 16.0934 0 0
3:55 pm 15:55 Sunny 80 26.5 45 7.1 29 29 SSW 14 22 29.94 1014 10 16.0934 0 0
4:15 pm 16:15 Sunny 80 26.6 45 7.4 30 30 SSW 16 26 29.91 1013 10 16.0934 0 0
4:35 pm 16:35 Sunny 80 26.7 45 7.2 29 29 S 14 22 29.91 1013 10 16.0934 0 0
4:55 pm 16:55 Sunny 80 26.8 45 7.4 29 29 S 14 22 29.91 1013 10 16.0934 0 0
5:15 pm 17:15 Sunny 80 26.6 45 7.1 29 29 SSW 16 26 29.91 1013 10 16.0934 0 0
5:35 pm 17:35 Sunny 80 26.7 45 7.4 29 29 S 17 28 29.91 1013 10 16.0934 0 0
5:55 pm 17:55 Sunny 80 26.7 45 7.2 29 29 SW 17 28 29.91 1013 10 16.0934 0 0
6:15 pm 18:15 Sunny 80 26.5 44 6.6 28 28 S 20 31 29.91 1013 10 16.0934 0 0
6:35 pm 18:35 Sunny 80 26.5 45 7.2 29 29 S 16 26 29.91 1013 10 16.0934 0 0
6:55 pm 18:55 Sunny 79 26.1 45 7.3 30 30 SSW 15 24 29.91 1013 10 16.0934 0 0
7:15 pm 19:15 Sunny 78 25.8 45 7 30 30 S 15 24 29.91 1013 10 16.0934 0 0
7:35 pm 19:35 Sunny 78 25.6 45 7.3 31 31 S 14 22 29.91 1013 10 16.0934 0 0
7:55 pm 19:55 Sunny 77 25 46 7.9 34 34 S 13 20 29.88 1012 10 16.0934 0 0
8:15 pm 20:15 Sunny 76 24.5 47 8.1 35 35 S 12 19 29.91 1013 10 16.0934 0 0
8:35 pm 20:35 Sunny 74 23.4 48 9 40 40 S 9 15 29.91 1013 10 16.0934 0 0
8:55 pm 20:55 Sunny 73 22.6 49 9.2 43 43 S 9 15 29.94 1014 10 16.0934 0 0
9:15 pm 21:15 Clear 71 21.6 49 9.6 46 46 S 10 17 29.91 1013 10 16.0934 0 0
9:35 pm 21:35 Clear 69 20.8 50 9.8 49 49 S 9 15 29.94 1014 10 16.0934 0 0
9:55 pm 21:55 Clear 68 20.1 50 9.8 52 52 S 8 13 29.94 1014 10 16.0934 0 0
10:15 pm 22:15 Clear 67 19.3 50 10 55 55 S 7 11 29.97 1015 10 16.0934 0 0
10:35 pm 22:35 Clear 66 19 50 10 56 56 S 6 9 29.97 1015 10 16.0934 0 0
10:55 pm 22:55 Clear 65 18.6 51 10.3 59 59 S 6 9 30 1016 10 16.0934 0 0
11:15 pm 23:15 Clear 65 18.5 51 10.5 60 60 S 7 11 29.97 1015 10 16.0934 0 0
11:35 pm 23:35 Clear 65 18.6 51 10.7 60 60 S 8 13 29.97 1015 10 16.0934 0 0
11:55 pm 23:55 Clear 65 18.6 52 11 61 61 S 9 15 29.97 1015 10 16.0934 0 0

Powered by AerisWeather